Location: Pinawa
(50.1500°N, 95.8830°W)
Time: 16:53:29
(UTC-05:00)

Amateur Radio Satellites - All Passes

Search period start: 16 April 2014 16:23
Search period end: 17 April 2014 16:23
Location: Pinawa, 50.1500°N, 95.8830°W

Satellite Date Start Highest point End Downlink Frequencies (MHz)
Time Altitude Azimuth
TMSAT-1 16 Apr 16:29:59 16:34:55 39° 263° (W) 16:39:52 436.925 FM
AO-7 16 Apr 17:00:52 17:09:08 75° 253° (WSW) 17:17:29 29.400 - 29.500 MHz
JAS-1B 16 Apr 17:06:04 17:13:57 50° 260° (W) 17:20:35 435.800 - 435.900 CW/SSB
ISS 16 Apr 17:12:36 17:14:58 18° 141° (SE) 17:17:21 145.800 FM
Uosat F 16 Apr 17:13:15 17:17:53 37° 263° (W) 17:22:33 435.120 FM
Hamsat 16 Apr 17:17:29 17:19:55 15° 58° (ENE) 17:22:22 145.90 MHz
Gurwin Techsat 1B 16 Apr 17:23:28 17:25:18 12° 276° (W) 17:27:08 435.225 FM
Saudisat 1A 16 Apr 17:39:10 17:41:20 13° 7° (N) 17:43:30 436.775 MHz
OPAL 16 Apr 17:48:25 17:52:44 27° 303° (WNW) 17:57:02 ?
SO-50 16 Apr 17:50:42 17:55:12 87° 129° (SE) 17:59:46 436.795 FM
RS-15 16 Apr 18:04:22 18:14:32 47° 247° (WSW) 18:24:57 29.354 - 29.394 USB, Beacon 29.352 USB
STRAND 1 16 Apr 18:43:37 18:45:44 12° 85° (E) 18:47:51 ?
JAS-2 16 Apr 18:44:03 18:49:24 40° 66° (ENE) 18:54:20 435.800 - 435.900 CW/SSB, 435.910 FM
ISS 16 Apr 18:47:57 18:51:18 71° 159° (SSE) 18:54:40 145.800 FM
Hamsat 16 Apr 18:51:10 18:55:22 75° 257° (WSW) 18:59:38 145.90 MHz
UOSAT-12 16 Apr 18:52:16 18:56:09 28° 117° (ESE) 19:00:06 437.025 FM, 437.400 FM
AO-7 16 Apr 18:58:05 19:03:23 18° 274° (W) 19:08:44 29.400 - 29.500 MHz
SO-67 16 Apr 19:13:34 19:16:48 36° 70° (ENE) 19:20:04 435.3500 MHz FM
HO-68 16 Apr 19:15:53 19:20:22 18° 44° (NE) 19:24:51 435.675 MHz FM
Saudisat 1A 16 Apr 19:18:41 19:22:26 26° 31° (NNE) 19:26:08 436.775 MHz
SO-50 16 Apr 19:32:40 19:36:21 24° 331° (NNW) 19:40:05 436.795 FM
STRAND 1 16 Apr 20:20:39 20:25:47 80° 105° (ESE) 20:30:53 ?
ISS 16 Apr 20:24:47 20:28:08 65° 359° (N) 20:31:30 145.800 FM
JAS-2 16 Apr 20:29:15 20:34:36 36° 263° (W) 20:39:33 435.800 - 435.900 CW/SSB, 435.910 FM
UOSAT-12 16 Apr 20:31:33 20:36:04 54° 317° (NW) 20:40:41 437.025 FM, 437.400 FM
SO-67 16 Apr 20:47:38 20:50:08 18° 268° (W) 20:52:38 435.3500 MHz FM
Saudisat 1A 16 Apr 20:58:04 21:02:30 75° 232° (SW) 21:06:52 436.775 MHz
HO-68 16 Apr 20:59:47 21:06:48 63° 66° (ENE) 21:13:51 435.675 MHz FM
SO-50 16 Apr 21:16:13 21:18:31 14° 356° (N) 21:20:49 436.795 FM
FUNcube-1 16 Apr 21:35:45 21:38:10 15° 59° (ENE) 21:40:35 145.950 - 145.970 MHz USB
Oscar 11 16 Apr 21:52:31 21:56:44 56° 71° (ENE) 22:00:59 145.825 FM, Beacon 2401.500 USB
STRAND 1 16 Apr 22:00:54 22:04:24 19° 304° (NW) 22:07:54 ?
ISS 16 Apr 22:01:38 22:05:00 79° 200° (SSW) 22:08:22 145.800 FM
UOSAT-12 16 Apr 22:13:55 22:17:14 19° 340° (NNW) 22:20:34 437.025 FM, 437.400 FM
MaSat-1 16 Apr 22:39:33 22:41:43 20° 114° (ESE) 22:43:44 437.345 MHz
Saudisat 1A 16 Apr 22:39:55 22:41:19 11° 251° (WSW) 22:42:42 436.775 MHz
HO-68 16 Apr 22:48:44 22:54:58 32° 266° (W) 23:01:16 435.675 MHz FM
SO-50 16 Apr 22:57:39 23:00:51 18° 21° (NNE) 23:04:04 436.795 FM
FUNcube-1 16 Apr 23:09:54 23:14:07 73° 257° (WSW) 23:18:19 145.950 - 145.970 MHz USB
Oscar 11 16 Apr 23:30:18 23:33:18 18° 270° (W) 23:36:19 145.825 FM, Beacon 2401.500 USB
ISS 16 Apr 23:38:47 23:41:25 21° 218° (SW) 23:44:01 145.800 FM
UOSAT-12 16 Apr 23:56:37 23:59:09 14° 4° (N) 00:01:42 437.025 FM, 437.400 FM
MaSat-1 17 Apr 00:17:57 00:20:07 21° 310° (NW) 00:22:09 437.345 MHz
SO-50 17 Apr 00:37:52 00:42:24 53° 43° (NE) 00:46:59 436.795 FM
Sapphire 17 Apr 00:56:50 00:59:55 16° 104° (ESE) 01:03:01 437.095 MHz 1200 baud AX-25 AFSK
Oscar 16 17 Apr 01:28:42 01:29:36 10° 83° (E) 01:30:30 437.025 USB, Beacon 2401.1428
UOSAT-12 17 Apr 01:37:01 01:40:55 25° 28° (NNE) 01:44:48 437.025 FM, 437.400 FM
PCSat 17 Apr 01:39:45 01:44:36 35° 113° (ESE) 01:49:29 145.825 MHz
OPAL 17 Apr 01:50:56 01:55:13 29° 58° (ENE) 01:59:34 ?
Uribyol 2 17 Apr 01:59:05 01:59:37 10° 83° (E) 02:00:09 436.500 FM
SO-50 17 Apr 02:18:48 02:22:46 28° 243° (WSW) 02:26:46 436.795 FM
AO-27 17 Apr 02:35:03 02:38:59 21° 91° (E) 02:42:53 436.795 MHz FM
KITSAT 1 17 Apr 02:35:32 02:39:57 16° 99° (E) 02:44:22 435.175 FM
Sapphire 17 Apr 02:37:07 02:42:32 83° 124° (SE) 02:48:00 437.095 MHz 1200 baud AX-25 AFSK
ITAMSAT 1 17 Apr 02:46:16 02:50:34 26° 93° (E) 02:54:50 435.822 SSB
Oscar 19 17 Apr 02:57:00 03:02:08 55° 101° (E) 03:07:14 437.125 CW, 437.150 USB
Oscar 10/S400 17 Apr 02:59:26 03:16:37 20° 123° (ESE) 04:00:19 145.825 - 145.975 CW/USB, Beacon 145.810 USB
Oscar 16 17 Apr 03:04:45 03:09:58 68° 103° (ESE) 03:15:08 437.025 USB, Beacon 2401.1428
UOSAT-12 17 Apr 03:16:56 03:21:41 90° 51° (NE) 03:26:25 437.025 FM, 437.400 FM
AO-Echo 17 Apr 03:21:20 03:25:56 40° 97° (E) 03:30:22 ?
PCSat 17 Apr 03:22:38 03:27:54 50° 314° (NW) 03:33:12 145.825 MHz
OPAL 17 Apr 03:29:01 03:33:53 50° 258° (WSW) 03:38:52 ?
Uribyol 2 17 Apr 03:34:56 03:40:07 67° 103° (ESE) 03:45:16 436.500 FM
Gurwin Techsat 1B 17 Apr 03:50:47 03:55:33 32° 95° (E) 04:00:16 435.225 FM
AO-27 17 Apr 04:13:49 04:18:57 64° 290° (WNW) 04:24:04 436.795 MHz FM
Sapphire 17 Apr 04:22:02 04:26:36 27° 326° (NW) 04:31:12 437.095 MHz 1200 baud AX-25 AFSK
ITAMSAT 1 17 Apr 04:25:20 04:30:22 53° 292° (WNW) 04:35:22 435.822 SSB
KITSAT 1 17 Apr 04:25:49 04:33:49 66° 120° (ESE) 04:41:51 435.175 FM
Oscar 19 17 Apr 04:36:54 04:41:12 27° 300° (WNW) 04:45:28 437.125 CW, 437.150 USB
TMSAT-1 17 Apr 04:40:31 04:45:47 60° 101° (E) 04:51:00 436.925 FM
Oscar 16 17 Apr 04:44:55 04:48:53 23° 302° (WNW) 04:52:50 437.025 USB, Beacon 2401.1428
JAS-1B 17 Apr 04:45:58 04:51:08 33° 95° (E) 04:56:15 435.800 - 435.900 CW/SSB
AO-7 17 Apr 04:57:31 05:04:32 29° 92° (E) 05:11:30 29.400 - 29.500 MHz
UOSAT-12 17 Apr 04:58:23 05:01:13 16° 249° (WSW) 05:04:01 437.025 FM, 437.400 FM
AO-Echo 17 Apr 05:00:22 05:04:37 31° 297° (WNW) 05:08:46 ?
PCSat 17 Apr 05:08:57 05:12:37 18° 338° (NNW) 05:16:18 145.825 MHz
Uribyol 2 17 Apr 05:15:13 05:19:10 23° 302° (WNW) 05:23:06 436.500 FM
Uosat F 17 Apr 05:15:45 05:20:37 48° 100° (E) 05:25:26 435.120 FM
Gurwin Techsat 1B 17 Apr 05:30:38 05:35:39 44° 294° (WNW) 05:40:39 435.225 FM
AO-27 17 Apr 05:55:20 05:57:31 13° 310° (NW) 05:59:43 436.795 MHz FM
STRAND 1 17 Apr 06:03:07 06:07:33 31° 62° (ENE) 06:12:00 ?
ITAMSAT 1 17 Apr 06:07:38 06:08:46 11° 312° (NW) 06:09:55 435.822 SSB
Sapphire 17 Apr 06:09:14 06:11:58 14° 352° (N) 06:14:41 437.095 MHz 1200 baud AX-25 AFSK
TMSAT-1 17 Apr 06:21:05 06:25:21 25° 301° (WNW) 06:29:36 436.925 FM
KITSAT 1 17 Apr 06:21:55 06:29:40 46° 324° (NW) 06:37:27 435.175 FM
RS-15 17 Apr 06:25:07 06:32:32 21° 99° (E) 06:39:47 29.354 - 29.394 USB, Beacon 29.352 USB
Hamsat 17 Apr 06:33:35 06:36:09 15° 88° (E) 06:38:43 145.90 MHz
JAS-1B 17 Apr 06:36:38 06:42:04 42° 296° (WNW) 06:47:23 435.800 - 435.900 CW/SSB
AO-7 17 Apr 06:49:49 06:58:08 78° 294° (WNW) 07:06:26 29.400 - 29.500 MHz
Uosat F 17 Apr 06:54:58 06:59:13 28° 299° (WNW) 07:03:26 435.120 FM
PCSat 17 Apr 06:55:44 06:58:19 13° 4° (N) 07:00:54 145.825 MHz
MaSat-1 17 Apr 06:58:11 07:00:22 21° 51° (NE) 07:02:46 437.345 MHz
JAS-2 17 Apr 07:32:23 07:36:21 21° 91° (E) 07:40:30 435.800 - 435.900 CW/SSB, 435.910 FM
STRAND 1 17 Apr 07:41:42 07:46:36 45° 261° (W) 07:51:31 ?
Sapphire 17 Apr 07:54:20 07:57:43 16° 18° (NNE) 08:01:04 437.095 MHz 1200 baud AX-25 AFSK
SO-67 17 Apr 08:06:50 08:09:45 24° 94° (E) 08:12:40 435.3500 MHz FM
Hamsat 17 Apr 08:08:18 08:12:37 69° 287° (WNW) 08:16:57 145.90 MHz
KITSAT 1 17 Apr 08:20:39 08:27:18 27° 352° (N) 08:33:57 435.175 FM
RS-15 17 Apr 08:31:43 08:42:52 72° 123° (ESE) 08:53:44 29.354 - 29.394 USB, Beacon 29.352 USB
MaSat-1 17 Apr 08:36:26 08:38:48 24° 245° (WSW) 08:41:27 437.345 MHz
PCSat 17 Apr 08:39:28 08:43:48 23° 30° (NNE) 08:48:06 145.825 MHz
AO-7 17 Apr 08:43:29 08:49:47 25° 316° (NW) 08:56:06 29.400 - 29.500 MHz
AO-40 17 Apr 09:00:17 09:39:02 11° 128° (SE) 10:10:33 Beacon 2401.320
JAS-2 17 Apr 09:16:45 09:21:56 64° 289° (WNW) 09:27:29 435.800 - 435.900 CW/SSB, 435.910 FM
Sapphire 17 Apr 09:37:30 09:42:38 41° 43° (NE) 09:47:45 437.095 MHz 1200 baud AX-25 AFSK
SO-67 17 Apr 09:39:53 09:42:55 28° 292° (WNW) 09:45:57 435.3500 MHz FM
Hamsat 17 Apr 09:46:52 09:47:49 11° 306° (NW) 09:48:46 145.90 MHz
HO-68 17 Apr 10:09:55 10:16:40 42° 98° (E) 10:23:24 435.675 MHz FM
KITSAT 1 17 Apr 10:18:18 10:25:25 32° 22° (NNE) 10:32:30 435.175 FM
PCSat 17 Apr 10:22:37 10:28:05 79° 53° (NE) 10:33:30 145.825 MHz
RS-15 17 Apr 10:45:10 10:55:56 51° 330° (NNW) 11:06:34 29.354 - 29.394 USB, Beacon 29.352 USB
FUNcube-1 17 Apr 10:55:33 10:58:05 15° 89° (E) 11:00:38 145.950 - 145.970 MHz USB
JAS-2 17 Apr 11:04:08 11:06:11 12° 310° (NW) 11:08:16 435.800 - 435.900 CW/SSB, 435.910 FM
Oscar 11 17 Apr 11:11:36 11:15:55 60° 101° (E) 11:20:14 145.825 FM, Beacon 2401.500 USB
Sapphire 17 Apr 11:21:00 11:26:09 45° 244° (WSW) 11:31:16 437.095 MHz 1200 baud AX-25 AFSK
HO-68 17 Apr 11:57:40 12:04:31 50° 298° (WNW) 12:11:22 435.675 MHz FM
PCSat 17 Apr 12:07:00 12:10:54 20° 253° (WSW) 12:14:47 145.825 MHz
KITSAT 1 17 Apr 12:14:07 12:22:16 72° 48° (NE) 12:30:20 435.175 FM
AO-27 17 Apr 12:23:14 12:24:06 10° 47° (NE) 12:24:57 436.795 MHz FM
FUNcube-1 17 Apr 12:30:46 12:34:57 64° 287° (WNW) 12:39:11 145.950 - 145.970 MHz USB
ITAMSAT 1 17 Apr 12:33:14 12:35:16 12° 50° (NE) 12:37:18 435.822 SSB
Oscar 19 17 Apr 12:41:02 12:44:55 22° 58° (ENE) 12:48:50 437.125 CW, 437.150 USB
Saudisat 1A 17 Apr 12:47:54 12:52:17 59° 125° (SE) 12:56:42 436.775 MHz
Oscar 16 17 Apr 12:48:28 12:52:41 26° 60° (ENE) 12:56:55 437.025 USB, Beacon 2401.1428
Oscar 11 17 Apr 12:48:40 12:51:44 19° 300° (WNW) 12:54:48 145.825 FM, Beacon 2401.500 USB
RS-15 17 Apr 13:01:12 13:11:15 38° 3° (N) 13:21:15 29.354 - 29.394 USB, Beacon 29.352 USB
AO-Echo 17 Apr 13:02:24 13:05:32 16° 55° (NE) 13:08:37 ?
Uribyol 2 17 Apr 13:19:24 13:23:41 27° 60° (ENE) 13:27:59 436.500 FM
Gurwin Techsat 1B 17 Apr 13:39:34 13:42:35 16° 52° (NE) 13:45:35 435.225 FM
HO-68 17 Apr 13:47:02 13:50:39 15° 321° (NW) 13:54:17 435.675 MHz FM
JAS-1B 17 Apr 13:49:35 13:52:50 14° 46° (NE) 13:55:53 435.800 - 435.900 CW/SSB
AO-27 17 Apr 13:57:29 14:02:30 51° 68° (ENE) 14:07:31 436.795 MHz FM
ITAMSAT 1 17 Apr 14:08:41 14:13:47 61° 70° (ENE) 14:18:55 435.822 SSB
KITSAT 1 17 Apr 14:10:04 14:17:09 35° 250° (WSW) 14:24:11 435.175 FM
AO-7 17 Apr 14:12:43 14:18:08 20° 38° (NE) 14:23:34 29.400 - 29.500 MHz
Oscar 19 17 Apr 14:18:42 14:23:49 68° 257° (WSW) 14:29:00 437.125 CW, 437.150 USB
Oscar 16 17 Apr 14:26:43 14:31:45 55° 259° (W) 14:36:50 437.025 USB, Beacon 2401.1428
TMSAT-1 17 Apr 14:27:36 14:31:53 26° 59° (ENE) 14:36:10 436.925 FM
Saudisat 1A 17 Apr 14:28:15 14:32:12 30° 326° (NW) 14:36:10 436.775 MHz
AO-Echo 17 Apr 14:38:22 14:43:37 84° 74° (ENE) 14:48:46 ?
Uosat F 17 Apr 14:56:57 15:00:26 19° 56° (NE) 15:03:55 435.120 FM
Uribyol 2 17 Apr 14:57:52 15:02:54 53° 260° (W) 15:07:59 436.500 FM
RS-15 17 Apr 15:15:27 15:26:15 58° 36° (NE) 15:37:09 29.354 - 29.394 USB, Beacon 29.352 USB
Gurwin Techsat 1B 17 Apr 15:16:26 15:21:44 77° 72° (ENE) 15:27:04 435.225 FM
OPAL 17 Apr 15:34:13 15:38:46 30° 97° (E) 15:43:18 ?
JAS-1B 17 Apr 15:34:41 15:42:18 53° 67° (ENE) 15:48:43 435.800 - 435.900 CW/SSB
AO-27 17 Apr 15:37:55 15:42:17 27° 267° (W) 15:46:40 436.795 MHz FM
ITAMSAT 1 17 Apr 15:49:42 15:53:43 22° 269° (W) 15:57:44 435.822 SSB
AO-7 17 Apr 16:01:18 16:09:21 59° 61° (ENE) 16:17:26 29.400 - 29.500 MHz
Oscar 19 17 Apr 16:03:23 16:04:10 10° 277° (W) 16:04:57 437.125 CW, 437.150 USB
TMSAT-1 17 Apr 16:06:14 16:11:28 59° 259° (W) 16:16:43 436.925 FM
Saudisat 1A 17 Apr 16:10:50 16:13:11 14° 349° (N) 16:15:31 436.775 MHz
